Location: Enborne
(51.3833°N, 1.3667°W)
Time: 14:34:03
(UTC+00:00)

Cosmos 1844 Rocket - Pass Details

Date: 20 January 2021
Orbit: 826 x 843 km, 71.0° (Epoch: 05 March)

Event Time Altitude Azimuth Distance (km) Brightness Sun altitude
Rises 21:38:23 0° 274° (W) 3,400 6.5 -45.9°
Reaches altitude 10° 21:41:52 10° 296° (WNW) 2,465 5.7 -46.4°
Enters shadow 21:42:23 11° 300° (WNW) 2,362 5.5 -46.5°
